EA1IOK-13 Weather Reports


Display with metric or nautical units.
time (UTC)temp
F
wind
direction
speed
MPH
gust
MPH
rain 1hr
in
rain 24hr
in
rain mn
in
humidity
%
barometer
mb
20260507075130 46 176 0.0 0.0 0.00 0.00 0.00 97 1010.5
20260507075050 46 176 0.0 0.0 0.00 0.00 0.00 97 1010.5
20260507073550 45 176 0.0 0.0 0.00 0.00 0.00 97 1010.6
20260507063549 45 352 0.0 0.0 0.00 0.00 0.00 97 1010.6
20260507062051 44 352 0.0 0.0 0.00 0.00 0.00 97 1010.4
20260507053627 43 347 0.0 3.0 0.00 0.00 0.00 97 1010.6
20260507053550 43 347 0.0 3.0 0.00 0.00 0.00 97 1010.6
20260507052051 43 347 0.0 0.0 0.00 0.00 0.00 96 1010.8
20260507043550 44 352 3.0 3.0 0.00 0.00 0.00 96 1010.6
20260507042050 43 12 1.0 1.0 0.00 0.00 0.00 96 1010.8
20260507040557 43 12 1.0 2.0 0.00 0.00 0.00 96 1010.7
20260507033550 44 17 1.0 2.0 0.00 0.00 0.00 95 1011.1
20260507025128 45 17 2.0 3.0 0.00 0.00 0.00 94 1011.1
20260507025049 45 17 2.0 3.0 0.00 0.00 0.00 94 1011.1
20260507023550 45 13 2.0 3.0 0.00 0.00 0.00 94 1011.2
20260507020549 46 357 6.0 6.0 0.00 0.00 0.00 94 1011.3
20260507015050 45 6 6.0 7.0 0.00 0.00 0.00 93 1011.4
20260507013549 46 6 6.0 8.0 0.00 0.00 0.00 93 1011.5
20260507012128 45 5 6.0 8.0 0.00 0.00 0.00 93 1011.5
20260507012050 45 5 6.0 8.0 0.00 0.00 0.00 93 1011.5
20260507003935 45 16 3.0 5.0 0.00 0.00 0.00 93 1011.8
20260507003548 45 16 3.0 5.0 0.00 0.00 0.00 93 1011.8
20260507000758 46 10 3.0 5.0 0.00 0.00 0.00 92 1011.9
20260507000549 46 10 3.0 5.0 0.00 0.00 0.00 92 1011.9
20260506233549 47 13 1.0 2.0 0.00 0.00 0.00 90 1012.0
20260506230759 48 19 3.0 5.0 0.00 0.00 0.00 90 1012.1
20260506230549 48 19 3.0 5.0 0.00 0.00 0.00 90 1012.1
20260506225051 48 17 2.0 3.0 0.00 0.00 0.00 89 1012.2
20260506223548 48 22 3.0 5.0 0.00 0.00 0.00 89 1012.1
20260506222054 49 17 3.0 5.0 0.00 0.00 0.00 88 1012.1
20260506220548 49 5 2.0 3.0 0.00 0.00 0.00 88 1012.1
20260506215051 49 355 1.0 3.0 0.00 0.00 0.00 87 1012.1
20260506213549 49 341 3.0 6.0 0.00 0.00 0.00 87 1012.2
20260506210551 50 332 1.0 2.0 0.00 0.00 0.00 86 1012.3
20260506205051 51 335 2.0 5.0 0.00 0.00 0.00 85 1012.3
20260506203547 52 333 3.0 3.0 0.00 0.00 0.00 84 1012.1
20260506202234 52 328 5.0 6.0 0.00 0.00 0.00 84 1011.9
20260506202049 52 328 5.0 6.0 0.00 0.00 0.00 84 1011.9
20260506200551 52 321 3.0 3.0 0.00 0.00 0.00 83 1011.8
20260506193550 53 324 2.0 3.0 0.00 0.00 0.00 80 1011.6
20260506192233 54 334 3.0 8.0 0.00 0.00 0.00 78 1011.5
20260506192050 54 334 3.0 8.0 0.00 0.00 0.00 78 1011.5
20260506190552 55 336 2.0 3.0 0.00 0.00 0.00 77 1011.6
20260506183937 57 338 6.0 10.0 0.00 0.00 0.00 75 1011.5
20260506183550 57 338 6.0 10.0 0.00 0.00 0.00 75 1011.5
20260506180550 59 1 5.0 7.0 0.00 0.00 0.00 72 1011.4
20260506175132 60 344 6.0 9.0 0.00 0.00 0.00 72 1011.4
20260506175050 60 344 6.0 9.0 0.00 0.00 0.00 72 1011.4
20260506173549 60 352 9.0 14.0 0.00 0.00 0.00 73 1011.4
20260506172235 61 7 8.0 9.0 0.00 0.00 0.00 73 1011.4
20260506172052 61 7 8.0 9.0 0.00 0.00 0.00 73 1011.4
20260506170549 60 355 5.0 8.0 0.00 0.00 0.00 75 1011.5
20260506165051 60 336 10.0 14.0 0.00 0.00 0.00 75 1011.6
20260506163936 61 5 2.0 3.0 0.00 0.00 0.00 70 1011.5
20260506163550 61 5 2.0 3.0 0.00 0.00 0.00 70 1011.5
20260506160550 65 219 9.0 13.0 0.00 0.00 0.00 60 1011.3
20260506155129 64 352 2.0 3.0 0.00 0.00 0.00 59 1011.4
20260506155050 64 352 2.0 3.0 0.00 0.00 0.00 59 1011.4
20260506153549 62 0 2.0 3.0 0.00 0.00 0.00 62 1011.6
20260506150550 64 336 6.0 9.0 0.00 0.00 0.00 62 1011.9
20260506143937 63 257 2.0 3.0 0.00 0.00 0.00 59 1012.3
20260506143549 63 257 2.0 3.0 0.00 0.00 0.00 59 1012.3
20260506140548 60 319 3.0 3.0 0.00 0.00 0.00 69 1012.8
20260506133551 61 287 3.0 7.0 0.00 0.00 0.00 67 1013.3
20260506123740 62 298 6.0 10.0 0.00 0.01 0.00 68 1013.8
20260506123550 62 298 6.0 10.0 0.00 0.01 0.00 68 1013.8
20260506122239 59 338 2.0 5.0 0.00 0.01 0.00 73 1014.1
20260506122048 59 338 2.0 5.0 0.00 0.01 0.00 73 1014.1
20260506120549 58 319 2.0 3.0 0.00 0.01 0.00 71 1014.3
20260506112121 0 33 2.0 0.0 0.00 0.00 0.00
20260506112048 59 33 2.0 7.0 0.00 0.02 0.00 74 1014.7
20260506110551 56 173 0.0 0.0 0.00 0.02 0.00 81 1015.0
20260506103737 54 225 2.0 3.0 0.00 0.02 0.00 82 1015.1
20260506103549 54 225 2.0 3.0 0.00 0.02 0.00 82 1015.1
20260506102228 53 218 1.0 2.0 0.00 0.02 0.00 85 1015.2
20260506102050 53 218 1.0 2.0 0.00 0.02 0.00 85 1015.2
20260506100550 53 250 2.0 5.0 0.00 0.02 0.00 83 1015.2
20260506092051 52 163 5.0 7.0 0.00 0.02 0.00 86 1015.2
20260506090549 52 213 3.0 3.0 0.00 0.02 0.00 90 1015.2
20260506083550 51 179 3.0 3.0 0.00 0.02 0.00 93 1015.1
20260506082057 49 217 2.0 3.0 0.00 0.02 0.00 93 1015.2